Miscellaneous Local Product
Issued by NWS Hastings, NE

Home | Current Version | Previous Version | Text Only | Print | Product List | Glossary Off
Versions: 1 2 3 4 5 6 7 8 9 10 11 12 13 14 15 16 17 18 19 20 21 22 23 24 25 26 27 28 29 30 31 32 33 34 35 36 37 38 39 40 41 42 43 44 45 46 47 48 49 50

000
AXUS43 KGID 130302
MISGRI

GID CWA HOURLY WEATHER ROUNDUP
NATIONAL WEATHER SERVICE HASTINGS NE
900 PM CST TUE DEC 12 2017

NOTE: "FAIR" INDICATES FEW OR NO CLOUDS BELOW 12,000 FEET WITH NO
SIGNIFICANT WEATHER AND/OR OBSTRUCTIONS TO VISIBILITY.

...SOUTH CENTRAL NEBRASKA...

CITY           SKY/WX    TMP DP  RH WIND       PRES   REMARKS
GRAND ISLAND   CLEAR     41  21  44 SW12      29.89F
KEARNEY        CLEAR     40  19  43 SW13      29.91F WCI  32
HASTINGS       CLEAR     40  18  41 SW7       29.91F
ORD            CLEAR     41  20  43 CALM      29.85F
YORK           CLEAR     36  21  55 CALM      29.91F
AURORA         CLEAR     37  19  49 SW12      29.89F WCI  29
LEXINGTON      CLEAR     34  20  56 N3        29.91F
HOLDREGE       CLEAR     43  21  42 SW9       29.92F
HEBRON         CLEAR     40  25  55 SW7       29.93F WCI  35

...NEBRASKA PANHANDLE...

CITY           SKY/WX    TMP DP  RH WIND       PRES   REMARKS
CHADRON        CLEAR     45  19  35 NW7       29.95S
ALLIANCE       CLEAR     29  16  58 W9        29.96F WCI  20
SCOTTSBLUFF    CLOUDY    39  15  37 W12       30.00F WCI  32
SIDNEY         CLEAR     45  11  25 W16       30.02F

...WESTERN AND NORTH CENTRAL NEBRASKA...

CITY           SKY/WX    TMP DP  RH WIND       PRES   REMARKS
VALENTINE      CLOUDY    42  22  44 W12       29.84F
AINSWORTH      CLEAR     39  23  51 W10       29.82F WCI  32
ONEILL         CLEAR     40  24  53 SW8       29.81F WCI  34
BROKEN BOW     CLEAR     32  20  61 CALM      29.88F
IMPERIAL       CLEAR     44  16  32 W10       29.98F
NORTH PLATTE   CLEAR     29  20  69 NW6       29.92F WCI  23
MCCOOK         CLOUDY    40  19  43 W9        29.96F WCI  34

...EASTERN NEBRASKA...

CITY           SKY/WX    TMP DP  RH WIND       PRES   REMARKS
NORFOLK        CLEAR     41  19  41 SW18      29.79F
SO SIOUX CITY  CLEAR     27  21  78 E8        29.81F WCI  19
TEKAMAH        CLEAR     27  19  72 S13       29.85F WCI  16
ALBION         CLEAR     39  19  43 S3        29.86F
OMAHA EPPLEY   CLEAR     29  23  78 SE9       29.90F WCI  20
OFFUTT AFB     CLEAR     27  22  81 SE5       29.90F WCI  21
MILLARD        CLEAR     32  26  79 SE3       29.90F
LINCOLN        CLEAR     34  23  64 S6        29.93F WCI  29
NEBRASKA CITY  CLEAR     34  28  77 SW12      29.93F WCI  25
BEATRICE       CLEAR     37  26  64 SW8       29.93F WCI  31
FALLS CITY     CLEAR     34  25  69 S6        29.96F WCI  29

...NORTHERN KANSAS...

CITY           SKY/WX    TMP DP  RH WIND       PRES   REMARKS
GOODLAND       CLEAR     44  15  31 W15       30.02F
HILL CITY      CLEAR     43  19  38 W8        29.97F
NORTON         CLEAR     37  12  35 SW9       29.95F WCI  31
PHILLIPSBURG   CLEAR     39  18  41 CALM      29.96F
SMITH CENTER   CLEAR     36  18  48 SE5       29.96F WCI  32
HAYS           CLEAR     42  16  34 W6        29.98F
RUSSELL        CLEAR     40  19  43 SW10      29.96F WCI  33
CONCORDIA      CLOUDY    41  25  53 S12       29.95F
SALINA         CLEAR     39  24  55 S9        29.99F WCI  33
TOPEKA         CLEAR     37  28  70 S6        30.01F WCI  32



USA.gov is the U.S. government's official web portal to all federal, state and local government web resources and services.